N179LJ TNCM-MRLB

Flight info

Callsign N179LJ
Flight time 3h 41m
Altitude 34000
Route MODOR2 GOUDA L204 MLIZA L335 SCAPA UL335 CTG/N0470F360 UL335 TBG UA317 LIO UP401 TIO UG440 LIB
Aircraft B752/M-SDE2E3FGHIJ3J4J7RWXY/LB1

Departure

Time 2026-04-15 21:10
Airport Princess Juliana International Airport (TNCM)

Arrival

Time 2026-04-16 00:51
Airport Daniel Oduber Quirós International Airport (MRLB)
Time Latitude Longitude Altitude Speed Heading
2026-04-15 20:39 18.04339 -63.11293 23 ft 0 kts 351°
2026-04-15 21:04 18.04325 -63.11291 22 ft 2 kts 351°
2026-04-15 21:04 18.04310 -63.11288 22 ft 2 kts 352°
2026-04-15 21:04 18.04295 -63.11286 22 ft 1 kts 351°
2026-04-15 21:04 18.04285 -63.11285 22 ft 2 kts 343°
2026-04-15 21:05 18.04273 -63.11277 22 ft 2 kts 314°
2026-04-15 21:05 18.04265 -63.11263 22 ft 2 kts 289°
2026-04-15 21:05 18.04263 -63.11248 22 ft 1 kts 264°
2026-04-15 21:05 18.04264 -63.11242 22 ft 1 kts 258°
2026-04-15 21:06 18.04264 -63.11240 21 ft 0 kts 258°
2026-04-15 21:07 18.04258 -63.11274 22 ft 9 kts 258°
2026-04-15 21:07 18.04238 -63.11375 22 ft 15 kts 258°
2026-04-15 21:07 18.04199 -63.11493 24 ft 18 kts 244°
2026-04-15 21:07 18.04118 -63.11607 25 ft 20 kts 230°
2026-04-15 21:08 18.04056 -63.11751 26 ft 25 kts 260°
2026-04-15 21:08 18.04029 -63.11894 27 ft 16 kts 247°
2026-04-15 21:08 18.03955 -63.11952 26 ft 12 kts 141°
2026-04-15 21:08 18.03953 -63.11897 26 ft 7 kts 87°
2026-04-15 21:09 18.03962 -63.11815 26 ft 16 kts 82°
2026-04-15 21:09 18.04003 -63.11501 23 ft 75 kts 81°
2026-04-15 21:09 18.04113 -63.10728 18 ft 136 kts 82°
2026-04-15 21:09 18.04275 -63.09620 269 ft 164 kts 83°
2026-04-15 21:10 18.04230 -63.08464 1085 ft 155 kts 111°
2026-04-15 21:10 18.03577 -63.07612 1572 ft 165 kts 149°
2026-04-15 21:10 18.02354 -63.07381 1827 ft 194 kts 176°
2026-04-15 21:10 18.00949 -63.07394 2246 ft 212 kts 176°
2026-04-15 21:11 17.99420 -63.07418 2735 ft 228 kts 179°
2026-04-15 21:11 17.97770 -63.07484 3275 ft 244 kts 180°
2026-04-15 21:11 17.96005 -63.07587 3777 ft 262 kts 187°
2026-04-15 21:11 17.94287 -63.08319 4390 ft 276 kts 217°
2026-04-15 21:12 17.93089 -63.09891 5252 ft 280 kts 246°
2026-04-15 21:12 17.92725 -63.11875 6023 ft 284 kts 274°
2026-04-15 21:12 17.93263 -63.13850 6829 ft 286 kts 296°
2026-04-15 21:12 17.94180 -63.15717 7635 ft 288 kts 296°
2026-04-15 21:13 17.94993 -63.17622 8399 ft 289 kts 286°
2026-04-15 21:13 17.95430 -63.19672 9181 ft 290 kts 276°
2026-04-15 21:13 17.95626 -63.21766 9928 ft 292 kts 272°
2026-04-15 21:13 17.95691 -63.23894 10492 ft 300 kts 268°
2026-04-15 21:14 17.95633 -63.26176 10730 ft 321 kts 267°
2026-04-15 21:14 17.95540 -63.28582 11003 ft 340 kts 266°
2026-04-15 21:14 17.95425 -63.31107 11246 ft 359 kts 266°
2026-04-15 21:14 17.95292 -63.33785 11482 ft 375 kts 266°
2026-04-15 21:15 17.95150 -63.36537 12109 ft 379 kts 266°
2026-04-15 21:15 17.95005 -63.39307 12776 ft 381 kts 266°
2026-04-15 21:15 17.94856 -63.42083 13329 ft 386 kts 266°
2026-04-15 21:15 17.94705 -63.44890 13991 ft 386 kts 266°
2026-04-15 21:16 17.94552 -63.47706 14607 ft 387 kts 266°
2026-04-15 21:16 17.94398 -63.50548 15244 ft 388 kts 266°
2026-04-15 21:16 17.94244 -63.53360 15778 ft 391 kts 266°
2026-04-15 21:16 17.94088 -63.56205 16378 ft 391 kts 266°
2026-04-15 21:17 17.93931 -63.59061 16884 ft 394 kts 266°
2026-04-15 21:17 17.93772 -63.61945 17464 ft 394 kts 266°
2026-04-15 21:17 17.93611 -63.64835 17938 ft 397 kts 266°
2026-04-15 21:17 17.93220 -63.67711 18409 ft 400 kts 257°
2026-04-15 21:18 17.92587 -63.70560 18862 ft 402 kts 257°
2026-04-15 21:18 17.91959 -63.73403 19330 ft 405 kts 257°
2026-04-15 21:18 17.91308 -63.76310 19815 ft 406 kts 257°
2026-04-15 21:18 17.90663 -63.79182 20213 ft 410 kts 257°
2026-04-15 21:19 17.90000 -63.82117 20679 ft 411 kts 257°
2026-04-15 21:19 17.89342 -63.85027 21122 ft 413 kts 257°
2026-04-15 21:19 17.88677 -63.87964 21477 ft 416 kts 258°
2026-04-15 21:19 17.88006 -63.90924 21935 ft 416 kts 258°
2026-04-15 21:20 17.87337 -63.93872 22267 ft 420 kts 258°
2026-04-15 21:20 17.86652 -63.96885 22709 ft 420 kts 258°
2026-04-15 21:20 17.85981 -63.99837 23094 ft 422 kts 258°
2026-04-15 21:20 17.85293 -64.02859 23412 ft 426 kts 258°
2026-04-15 21:21 17.84604 -64.05888 23834 ft 427 kts 258°
2026-04-15 21:21 17.83915 -64.08909 24197 ft 429 kts 258°
2026-04-15 21:21 17.83224 -64.11936 24584 ft 430 kts 258°
2026-04-15 21:21 17.82526 -64.14992 24889 ft 433 kts 258°
2026-04-15 21:22 17.81820 -64.18080 25249 ft 435 kts 258°
2026-04-15 21:22 17.81118 -64.21147 25664 ft 435 kts 257°
2026-04-15 21:22 17.80157 -64.24211 25888 ft 441 kts 248°
2026-04-15 21:22 17.78714 -64.27041 26321 ft 442 kts 241°
2026-04-15 21:23 17.77118 -64.29783 26595 ft 445 kts 241°
2026-04-15 21:23 17.75486 -64.32584 26906 ft 447 kts 241°
2026-04-15 21:23 17.73856 -64.35362 27254 ft 448 kts 240°
2026-04-15 21:23 17.72208 -64.38163 27520 ft 451 kts 240°
2026-04-15 21:24 17.70556 -64.40964 27884 ft 451 kts 240°
2026-04-15 21:24 17.68902 -64.43764 28153 ft 453 kts 240°
2026-04-15 21:24 17.67260 -64.46541 28482 ft 454 kts 240°
2026-04-15 21:24 17.65586 -64.49367 28926 ft 451 kts 240°
2026-04-15 21:25 17.63949 -64.52131 29427 ft 447 kts 240°
2026-04-15 21:25 17.62313 -64.54889 29850 ft 445 kts 241°
2026-04-15 21:25 17.60694 -64.57618 30397 ft 439 kts 241°
2026-04-15 21:25 17.59088 -64.60323 30918 ft 433 kts 241°
2026-04-15 21:26 17.57508 -64.62986 31506 ft 425 kts 241°
2026-04-15 21:26 17.56079 -64.65391 31802 ft 425 kts 241°
2026-04-15 21:26 17.54521 -64.68015 32215 ft 421 kts 241°
2026-04-15 21:26 17.52984 -64.70600 32795 ft 414 kts 241°
2026-04-15 21:27 17.51468 -64.73151 33107 ft 414 kts 241°
2026-04-15 21:27 17.49943 -64.75718 33431 ft 412 kts 241°
2026-04-15 21:27 17.48433 -64.78255 33772 ft 411 kts 241°
2026-04-15 21:27 17.46918 -64.80800 33955 ft 410 kts 241°
2026-04-15 21:28 17.45401 -64.83350 33943 ft 410 kts 241°
2026-04-15 21:28 17.42408 -64.88373 33944 ft 408 kts 241°
2026-04-15 21:29 17.39401 -64.93417 33938 ft 409 kts 241°
2026-04-15 21:29 17.36383 -64.98474 33932 ft 408 kts 241°
2026-04-15 21:30 17.33374 -65.03513 33931 ft 409 kts 241°
2026-04-15 21:30 17.30356 -65.08563 33926 ft 409 kts 241°
2026-04-15 21:31 17.25822 -65.16143 33931 ft 410 kts 241°
2026-04-15 21:32 17.21280 -65.23727 33935 ft 410 kts 241°
2026-04-15 21:32 17.18256 -65.28773 33927 ft 410 kts 241°
2026-04-15 21:33 17.15223 -65.33829 33920 ft 409 kts 241°
2026-04-15 21:33 17.12202 -65.38861 33916 ft 410 kts 241°
2026-04-15 21:34 17.09178 -65.43894 33912 ft 409 kts 241°
2026-04-15 21:34 17.06150 -65.48931 33909 ft 409 kts 241°
2026-04-15 21:35 17.03119 -65.53968 33905 ft 409 kts 241°
2026-04-15 21:35 17.00103 -65.59000 33901 ft 409 kts 241°
2026-04-15 21:36 16.97061 -65.64039 33900 ft 409 kts 241°
2026-04-15 21:36 16.94056 -65.69060 33922 ft 410 kts 240°
2026-04-15 21:37 16.90990 -65.74113 33927 ft 410 kts 240°
2026-04-15 21:37 16.87959 -65.79121 33926 ft 410 kts 240°
2026-04-15 21:38 16.84912 -65.84160 33929 ft 410 kts 240°
2026-04-15 21:38 16.81871 -65.89186 33923 ft 409 kts 240°
2026-04-15 21:39 16.78834 -65.94203 33922 ft 410 kts 241°
2026-04-15 21:39 16.75774 -65.99255 33922 ft 410 kts 241°
2026-04-15 21:40 16.72744 -66.04256 33924 ft 410 kts 241°
2026-04-15 21:40 16.69701 -66.09274 33919 ft 410 kts 240°
2026-04-15 21:41 16.66630 -66.14335 33916 ft 411 kts 241°
2026-04-15 21:41 16.63582 -66.19352 33916 ft 411 kts 241°
2026-04-15 21:42 16.60534 -66.24367 33914 ft 411 kts 241°
2026-04-15 21:42 16.57468 -66.29408 33913 ft 411 kts 241°
2026-04-15 21:43 16.54398 -66.34454 33910 ft 412 kts 241°
2026-04-15 21:43 16.51339 -66.39476 33909 ft 411 kts 241°
2026-04-15 21:44 16.48259 -66.44528 33908 ft 411 kts 241°
2026-04-15 21:44 16.45190 -66.49561 33903 ft 411 kts 241°
2026-04-15 21:45 16.42122 -66.54586 33906 ft 412 kts 241°
2026-04-15 21:45 16.39167 -66.59660 33903 ft 409 kts 243°
2026-04-15 21:46 16.36231 -66.64742 33909 ft 411 kts 242°
2026-04-15 21:46 16.33202 -66.69814 33918 ft 413 kts 241°
2026-04-15 21:47 16.30144 -66.74863 33916 ft 411 kts 241°
2026-04-15 21:47 16.27078 -66.79889 33917 ft 412 kts 240°
2026-04-15 21:48 16.24021 -66.84887 33908 ft 412 kts 240°
2026-04-15 21:48 16.20934 -66.89924 33919 ft 412 kts 241°
2026-04-15 21:49 16.17843 -66.94961 33927 ft 413 kts 240°
2026-04-15 21:49 16.14765 -66.99973 33926 ft 414 kts 241°
2026-04-15 21:50 16.11666 -67.05014 33924 ft 414 kts 240°
2026-04-15 21:50 16.08577 -67.10036 33921 ft 412 kts 241°
2026-04-15 21:51 16.05483 -67.15063 33921 ft 413 kts 241°
2026-04-15 21:51 16.02366 -67.20123 33916 ft 413 kts 240°
2026-04-15 21:52 15.99285 -67.25121 33914 ft 412 kts 240°
2026-04-15 21:52 15.96184 -67.30148 33911 ft 414 kts 240°
2026-04-15 21:53 15.93076 -67.35183 33911 ft 412 kts 240°
2026-04-15 21:53 15.89983 -67.40191 33907 ft 412 kts 240°
2026-04-15 21:54 15.86887 -67.45200 33904 ft 413 kts 240°
2026-04-15 21:54 15.83787 -67.50178 33900 ft 412 kts 239°
2026-04-15 21:55 15.80436 -67.55023 33897 ft 415 kts 238°
2026-04-15 21:55 15.77073 -67.59887 33895 ft 414 kts 238°
2026-04-15 21:56 15.73696 -67.64769 33889 ft 414 kts 238°
2026-04-15 21:56 15.70353 -67.69598 33903 ft 414 kts 238°
2026-04-15 21:57 15.66985 -67.74461 33903 ft 413 kts 238°
2026-04-15 21:57 15.63629 -67.79306 33904 ft 414 kts 238°
2026-04-15 21:58 15.60274 -67.84144 33903 ft 414 kts 237°
2026-04-15 21:58 15.56925 -67.88972 33898 ft 413 kts 237°
2026-04-15 21:59 15.53541 -67.93847 33898 ft 415 kts 237°
2026-04-15 21:59 15.50169 -67.98701 33901 ft 415 kts 237°
2026-04-15 22:00 15.46803 -68.03544 33904 ft 416 kts 237°
2026-04-15 22:00 15.43406 -68.08427 33904 ft 416 kts 237°
2026-04-15 22:01 15.40040 -68.13264 33903 ft 415 kts 237°
2026-04-15 22:01 15.36664 -68.18112 33902 ft 416 kts 237°
2026-04-15 22:02 15.33271 -68.22980 33902 ft 417 kts 237°
2026-04-15 22:02 15.29873 -68.27853 33901 ft 417 kts 237°
2026-04-15 22:03 15.26474 -68.32725 33898 ft 417 kts 237°
2026-04-15 22:03 15.23093 -68.37567 33899 ft 417 kts 237°
2026-04-15 22:04 15.19710 -68.42484 33896 ft 417 kts 238°
2026-04-15 22:04 15.16375 -68.47392 33897 ft 418 kts 238°
2026-04-15 22:05 15.13035 -68.52300 33895 ft 418 kts 238°
2026-04-15 22:05 15.09691 -68.57211 33894 ft 417 kts 238°
2026-04-15 22:06 15.06334 -68.62138 33895 ft 418 kts 238°
2026-04-15 22:06 15.02984 -68.67054 33912 ft 419 kts 237°
2026-04-15 22:07 14.99612 -68.71996 33909 ft 421 kts 237°
2026-04-15 22:07 14.96233 -68.76948 33902 ft 419 kts 238°
2026-04-15 22:08 14.92881 -68.81855 33904 ft 420 kts 237°
2026-04-15 22:08 14.89496 -68.86801 33906 ft 421 kts 237°
2026-04-15 22:09 14.86104 -68.91738 33903 ft 421 kts 237°
2026-04-15 22:09 14.82723 -68.96668 33903 ft 422 kts 237°
2026-04-15 22:10 14.79316 -69.01636 33901 ft 422 kts 237°
2026-04-15 22:10 14.75954 -69.06541 33898 ft 421 kts 238°
2026-04-15 22:11 14.72559 -69.11494 33897 ft 421 kts 237°
2026-04-15 22:11 14.69177 -69.16423 33888 ft 421 kts 237°
2026-04-15 22:12 14.65777 -69.21375 33879 ft 420 kts 238°
2026-04-15 22:12 14.62414 -69.26271 33881 ft 421 kts 237°
2026-04-15 22:13 14.59016 -69.31218 33879 ft 421 kts 237°
2026-04-15 22:13 14.55635 -69.36136 33878 ft 422 kts 237°
2026-04-15 22:14 14.52239 -69.41074 33881 ft 423 kts 237°
2026-04-15 22:14 14.48841 -69.46011 33877 ft 421 kts 237°
2026-04-15 22:15 14.45445 -69.50942 33879 ft 422 kts 237°
2026-04-15 22:15 14.42038 -69.55887 33876 ft 422 kts 237°
2026-04-15 22:16 14.38818 -69.60556 33876 ft 423 kts 237°
2026-04-15 22:16 14.35417 -69.65488 33878 ft 422 kts 237°
2026-04-15 22:17 14.32033 -69.70390 33888 ft 422 kts 237°
2026-04-15 22:17 14.28620 -69.75329 33886 ft 421 kts 237°
2026-04-15 22:18 14.25264 -69.80186 33888 ft 422 kts 237°
2026-04-15 22:18 14.21850 -69.85121 33887 ft 421 kts 237°
2026-04-15 22:19 14.18447 -69.90039 33884 ft 421 kts 237°
2026-04-15 22:19 14.15043 -69.94968 33886 ft 422 kts 237°
2026-04-15 22:20 14.11642 -69.99889 33883 ft 423 kts 237°
2026-04-15 22:20 14.08211 -70.04833 33882 ft 422 kts 237°
2026-04-15 22:21 14.04824 -70.09709 33883 ft 421 kts 237°
2026-04-15 22:21 14.01418 -70.14611 33882 ft 421 kts 237°
2026-04-15 22:22 13.98000 -70.19535 33877 ft 421 kts 237°
2026-04-15 22:22 13.94589 -70.24445 33878 ft 423 kts 237°
2026-04-15 22:23 13.91163 -70.29375 33875 ft 423 kts 237°
2026-04-15 22:23 13.87744 -70.34291 33887 ft 422 kts 237°
2026-04-15 22:24 13.84329 -70.39198 33886 ft 423 kts 237°
2026-04-15 22:24 13.80902 -70.44125 33883 ft 424 kts 237°
2026-04-15 22:25 13.77471 -70.49056 33875 ft 424 kts 237°
2026-04-15 22:25 13.74031 -70.53996 33873 ft 425 kts 237°
2026-04-15 22:26 13.70596 -70.58925 33870 ft 424 kts 237°
2026-04-15 22:26 13.67166 -70.63847 33870 ft 424 kts 237°
2026-04-15 22:27 13.63716 -70.68792 33881 ft 425 kts 236°
2026-04-15 22:27 13.60273 -70.73726 33879 ft 425 kts 237°
2026-04-15 22:28 13.56831 -70.78655 33879 ft 424 kts 236°
2026-04-15 22:28 13.53382 -70.83591 33877 ft 426 kts 237°
2026-04-15 22:29 13.49926 -70.88535 33877 ft 426 kts 237°
2026-04-15 22:29 13.46467 -70.93479 33879 ft 427 kts 237°
2026-04-15 22:30 13.43003 -70.98429 33882 ft 427 kts 236°
2026-04-15 22:30 13.39547 -71.03364 33884 ft 426 kts 237°
2026-04-15 22:31 13.36095 -71.08299 33883 ft 426 kts 237°
2026-04-15 22:31 13.32634 -71.13246 33881 ft 426 kts 236°
2026-04-15 22:32 13.29171 -71.18178 33881 ft 427 kts 237°
2026-04-15 22:32 13.25681 -71.23146 33880 ft 427 kts 237°
2026-04-15 22:33 13.22214 -71.28078 33880 ft 427 kts 237°
2026-04-15 22:33 13.18727 -71.33036 33878 ft 428 kts 237°
2026-04-15 22:34 13.15247 -71.37982 33878 ft 428 kts 236°
2026-04-15 22:34 13.11775 -71.42914 33878 ft 428 kts 237°
2026-04-15 22:35 13.08276 -71.47892 33877 ft 428 kts 237°
2026-04-15 22:35 13.04811 -71.52818 33878 ft 428 kts 237°
2026-04-15 22:36 13.01321 -71.57777 33874 ft 427 kts 237°
2026-04-15 22:36 12.97828 -71.62739 33868 ft 429 kts 237°
2026-04-15 22:37 12.94340 -71.67689 33878 ft 428 kts 237°
2026-04-15 22:37 12.90864 -71.72620 33871 ft 429 kts 236°
2026-04-15 22:38 12.87367 -71.77580 33864 ft 427 kts 236°
2026-04-15 22:38 12.83902 -71.82490 33862 ft 428 kts 236°
2026-04-15 22:39 12.80405 -71.87464 33863 ft 429 kts 237°
2026-04-15 22:39 12.76921 -71.92437 33862 ft 428 kts 237°
2026-04-15 22:40 12.73468 -71.97364 33858 ft 429 kts 237°
2026-04-15 22:40 12.69969 -72.02351 33856 ft 428 kts 237°
2026-04-15 22:41 12.64773 -72.09757 33857 ft 428 kts 237°
2026-04-15 22:41 12.61281 -72.14728 33854 ft 428 kts 237°
2026-04-15 22:42 12.57811 -72.19666 33857 ft 429 kts 236°
2026-04-15 22:42 12.54328 -72.24621 33853 ft 429 kts 236°
2026-04-15 22:43 12.50829 -72.29595 33853 ft 429 kts 236°
2026-04-15 22:43 12.47341 -72.34551 33849 ft 430 kts 237°
2026-04-15 22:44 12.43840 -72.39522 33851 ft 430 kts 236°
2026-04-15 22:44 12.40347 -72.44480 33849 ft 429 kts 236°
2026-04-15 22:45 12.36855 -72.49434 33853 ft 430 kts 236°
2026-04-15 22:45 12.33373 -72.54371 33855 ft 429 kts 236°
2026-04-15 22:46 12.29869 -72.59337 33855 ft 430 kts 236°
2026-04-15 22:46 12.26378 -72.64281 33856 ft 430 kts 236°
2026-04-15 22:47 12.22871 -72.69247 33865 ft 431 kts 236°
2026-04-15 22:47 12.19348 -72.74230 33856 ft 430 kts 236°
2026-04-15 22:48 12.15844 -72.79186 33856 ft 431 kts 236°
2026-04-15 22:48 12.12343 -72.84135 33849 ft 430 kts 236°
2026-04-15 22:49 12.08835 -72.89116 33844 ft 431 kts 236°
2026-04-15 22:49 12.05337 -72.94066 33846 ft 431 kts 236°
2026-04-15 22:50 12.01804 -72.99058 33846 ft 432 kts 236°
2026-04-15 22:50 11.98297 -73.04007 33845 ft 432 kts 236°
2026-04-15 22:51 11.94774 -73.08975 33847 ft 432 kts 236°
2026-04-15 22:51 11.91232 -73.13966 33852 ft 431 kts 236°
2026-04-15 22:52 11.87715 -73.18922 33852 ft 431 kts 236°
2026-04-15 22:52 11.84188 -73.23886 33858 ft 432 kts 236°
2026-04-15 22:53 11.80666 -73.28842 33864 ft 432 kts 236°
2026-04-15 22:53 11.77150 -73.33787 33870 ft 433 kts 236°
2026-04-15 22:54 11.73589 -73.38792 33867 ft 433 kts 236°
2026-04-15 22:54 11.70072 -73.43735 33866 ft 433 kts 236°
2026-04-15 22:55 11.66513 -73.48733 33870 ft 434 kts 236°
2026-04-15 22:55 11.62969 -73.53706 33867 ft 433 kts 236°
2026-04-15 22:56 11.59437 -73.58662 33874 ft 433 kts 236°
2026-04-15 22:56 11.55885 -73.63642 33878 ft 433 kts 236°
2026-04-15 22:57 11.52335 -73.68618 33885 ft 433 kts 236°
2026-04-15 22:57 11.48808 -73.73558 33896 ft 434 kts 236°
2026-04-15 22:58 11.45244 -73.78548 33893 ft 434 kts 236°
2026-04-15 22:58 11.41696 -73.83514 33903 ft 434 kts 236°
2026-04-15 22:59 11.38146 -73.88480 33928 ft 436 kts 236°
2026-04-15 22:59 11.34550 -73.93507 33931 ft 435 kts 236°
2026-04-15 23:00 11.30977 -73.98499 33945 ft 436 kts 236°
2026-04-15 23:00 11.27407 -74.03486 33933 ft 435 kts 236°
2026-04-15 23:01 11.23851 -74.08452 33942 ft 435 kts 236°
2026-04-15 23:01 11.20269 -74.13445 33919 ft 436 kts 235°
2026-04-15 23:02 11.16596 -74.18310 33907 ft 436 kts 235°
2026-04-15 23:02 11.12935 -74.23286 33881 ft 436 kts 236°
2026-04-15 23:03 11.09336 -74.28236 33866 ft 436 kts 235°
2026-04-15 23:03 11.05718 -74.33190 33873 ft 437 kts 236°
2026-04-15 23:04 11.02117 -74.38168 33875 ft 437 kts 236°
2026-04-15 23:04 10.98537 -74.43194 33863 ft 438 kts 236°
2026-04-15 23:05 10.94967 -74.48189 33863 ft 438 kts 236°
2026-04-15 23:05 10.91382 -74.53203 33876 ft 436 kts 237°
2026-04-15 23:06 10.87820 -74.58220 33866 ft 437 kts 236°
2026-04-15 23:06 10.84254 -74.63199 33854 ft 438 kts 236°
2026-04-15 23:07 10.80649 -74.68213 33853 ft 439 kts 236°
2026-04-15 23:07 10.77005 -74.73209 33853 ft 438 kts 236°
2026-04-15 23:08 10.73387 -74.78186 33836 ft 438 kts 235°
2026-04-15 23:08 10.69749 -74.83153 33843 ft 438 kts 235°
2026-04-15 23:09 10.66159 -74.88129 33840 ft 439 kts 236°
2026-04-15 23:09 10.62561 -74.93152 33845 ft 438 kts 236°
2026-04-15 23:10 10.58989 -74.98155 33840 ft 437 kts 236°
2026-04-15 23:10 10.55408 -75.03161 33847 ft 438 kts 236°
2026-04-15 23:11 10.51796 -75.08178 33851 ft 438 kts 236°
2026-04-15 23:11 10.48209 -75.13145 33858 ft 438 kts 236°
2026-04-15 23:12 10.44581 -75.18162 33860 ft 439 kts 236°
2026-04-15 23:12 10.40974 -75.23147 33857 ft 438 kts 235°
2026-04-15 23:13 10.37357 -75.28140 33851 ft 438 kts 236°
2026-04-15 23:13 10.33727 -75.33151 33844 ft 439 kts 235°
2026-04-15 23:14 10.30105 -75.38147 33833 ft 439 kts 235°
2026-04-15 23:14 10.26492 -75.43127 33831 ft 439 kts 236°
2026-04-15 23:15 10.22873 -75.48122 33826 ft 439 kts 237°
2026-04-15 23:15 10.20164 -75.53611 33838 ft 436 kts 251°
2026-04-15 23:16 10.18194 -75.59444 33832 ft 436 kts 252°
2026-04-15 23:16 10.16263 -75.65255 33836 ft 436 kts 252°
2026-04-15 23:17 10.14332 -75.71069 33843 ft 437 kts 252°
2026-04-15 23:17 10.12386 -75.76920 33841 ft 437 kts 252°
2026-04-15 23:18 10.10435 -75.82785 33842 ft 438 kts 252°
2026-04-15 23:18 10.08499 -75.88604 33843 ft 436 kts 252°
2026-04-15 23:19 10.06563 -75.94418 33841 ft 436 kts 252°
2026-04-15 23:19 10.04612 -76.00273 33842 ft 437 kts 252°
2026-04-15 23:20 10.02671 -76.06093 33843 ft 436 kts 252°
2026-04-15 23:20 10.00737 -76.11891 33844 ft 436 kts 252°
2026-04-15 23:21 9.98788 -76.17730 33841 ft 437 kts 252°
2026-04-15 23:21 9.96832 -76.23583 33843 ft 437 kts 252°
2026-04-15 23:22 9.94884 -76.29411 33849 ft 437 kts 252°
2026-04-15 23:22 9.92937 -76.35235 33855 ft 438 kts 252°
2026-04-15 23:23 9.90980 -76.41079 33859 ft 438 kts 252°
2026-04-15 23:23 9.89025 -76.46915 33859 ft 437 kts 252°
2026-04-15 23:24 9.87071 -76.52746 33857 ft 437 kts 252°
2026-04-15 23:24 9.85120 -76.58565 33860 ft 438 kts 252°
2026-04-15 23:25 9.83154 -76.64422 33857 ft 437 kts 252°
2026-04-15 23:25 9.81198 -76.70248 33864 ft 438 kts 252°
2026-04-15 23:26 9.79245 -76.76063 33863 ft 438 kts 252°
2026-04-15 23:26 9.77284 -76.81895 33859 ft 437 kts 252°
2026-04-15 23:27 9.75314 -76.87753 33859 ft 437 kts 252°
2026-04-15 23:27 9.73352 -76.93579 33859 ft 438 kts 252°
2026-04-15 23:28 9.71385 -76.99420 33863 ft 439 kts 252°
2026-04-15 23:28 9.69410 -77.05279 33861 ft 438 kts 252°
2026-04-15 23:29 9.67441 -77.11119 33864 ft 438 kts 252°
2026-04-15 23:29 9.65475 -77.16943 33863 ft 438 kts 252°
2026-04-15 23:30 9.63503 -77.22784 33864 ft 437 kts 252°
2026-04-15 23:30 9.61538 -77.28602 33867 ft 438 kts 252°
2026-04-15 23:31 9.59567 -77.34431 33864 ft 438 kts 252°
2026-04-15 23:31 9.57587 -77.40286 33875 ft 439 kts 252°
2026-04-15 23:32 9.55444 -77.46075 33872 ft 439 kts 250°
2026-04-15 23:32 9.53266 -77.51805 33868 ft 439 kts 250°
2026-04-15 23:33 9.51079 -77.57558 33868 ft 438 kts 250°
2026-04-15 23:33 9.48873 -77.63361 33873 ft 440 kts 250°
2026-04-15 23:34 9.46684 -77.69116 33882 ft 438 kts 250°
2026-04-15 23:36 9.39010 -77.89265 33882 ft 439 kts 250°
2026-04-15 23:36 9.36793 -77.95046 33883 ft 439 kts 249°
2026-04-15 23:37 9.34552 -78.00788 33881 ft 440 kts 250°
2026-04-15 23:37 9.32341 -78.06525 33881 ft 440 kts 250°
2026-04-15 23:38 9.30124 -78.12307 33884 ft 439 kts 250°
2026-04-15 23:38 9.27920 -78.18066 33889 ft 440 kts 250°
2026-04-15 23:39 9.25828 -78.23843 33894 ft 438 kts 251°
2026-04-15 23:39 9.23785 -78.29650 33892 ft 440 kts 251°
2026-04-15 23:40 9.21730 -78.35484 33890 ft 440 kts 251°
2026-04-15 23:40 9.19679 -78.41305 33888 ft 440 kts 251°
2026-04-15 23:41 9.17618 -78.47148 33887 ft 440 kts 251°
2026-04-15 23:41 9.15658 -78.53020 33888 ft 440 kts 253°
2026-04-15 23:42 9.13764 -78.58865 33885 ft 439 kts 252°
2026-04-15 23:42 9.11766 -78.64716 33889 ft 440 kts 251°
2026-04-15 23:43 9.09723 -78.70576 33903 ft 441 kts 251°
2026-04-15 23:43 9.07672 -78.76405 33907 ft 440 kts 251°
2026-04-15 23:44 9.05620 -78.82217 33901 ft 440 kts 251°
2026-04-15 23:44 9.03554 -78.88058 33892 ft 441 kts 251°
2026-04-15 23:45 9.01491 -78.93881 33885 ft 440 kts 251°
2026-04-15 23:45 8.99437 -78.99676 33875 ft 440 kts 251°
2026-04-15 23:46 8.97266 -79.05475 33866 ft 440 kts 249°
2026-04-15 23:46 8.95050 -79.11242 33860 ft 441 kts 250°
2026-04-15 23:47 8.92916 -79.17057 33862 ft 441 kts 251°
2026-04-15 23:47 8.90821 -79.22877 33875 ft 442 kts 251°
2026-04-15 23:48 8.88688 -79.28712 33862 ft 442 kts 251°
2026-04-15 23:48 8.86590 -79.34512 33871 ft 441 kts 251°
2026-04-15 23:49 8.84494 -79.40359 33873 ft 441 kts 251°
2026-04-15 23:49 8.82424 -79.46176 33871 ft 441 kts 251°
2026-04-15 23:50 8.80467 -79.52069 33874 ft 440 kts 258°
2026-04-15 23:50 8.80154 -79.58164 33883 ft 440 kts 277°
2026-04-15 23:51 8.82664 -79.67136 33881 ft 442 kts 287°
2026-04-15 23:51 8.84592 -79.73030 33879 ft 442 kts 287°
2026-04-15 23:52 8.86549 -79.78922 33877 ft 443 kts 287°
2026-04-15 23:52 8.88522 -79.84804 33877 ft 443 kts 287°
2026-04-15 23:53 8.90486 -79.90682 33881 ft 442 kts 287°
2026-04-15 23:53 8.92446 -79.96538 33892 ft 443 kts 288°
2026-04-15 23:54 8.94421 -80.02436 33890 ft 443 kts 288°
2026-04-15 23:54 8.96391 -80.08318 33894 ft 441 kts 288°
2026-04-15 23:55 8.98366 -80.14222 33899 ft 443 kts 288°
2026-04-15 23:55 9.00333 -80.20104 33896 ft 442 kts 288°
2026-04-15 23:56 9.02299 -80.25983 33890 ft 443 kts 287°
2026-04-15 23:56 9.04332 -80.31887 33892 ft 442 kts 288°
2026-04-15 23:57 9.06336 -80.37770 33895 ft 443 kts 288°
2026-04-15 23:57 9.08310 -80.43640 33894 ft 443 kts 288°
2026-04-15 23:58 9.10282 -80.49535 33896 ft 443 kts 288°
2026-04-15 23:58 9.12256 -80.55449 33889 ft 444 kts 287°
2026-04-15 23:59 9.14221 -80.61345 33887 ft 443 kts 287°
2026-04-15 23:59 9.16198 -80.67284 33892 ft 444 kts 287°
2026-04-16 00:00 9.18164 -80.73193 33897 ft 443 kts 287°
2026-04-16 00:00 9.20167 -80.79068 33905 ft 444 kts 288°
2026-04-16 00:01 9.22183 -80.84994 33907 ft 445 kts 287°
2026-04-16 00:01 9.24170 -80.90921 33908 ft 444 kts 287°
2026-04-16 00:02 9.26129 -80.96804 33906 ft 445 kts 287°
2026-04-16 00:02 9.28150 -81.02722 33904 ft 443 kts 288°
2026-04-16 00:03 9.30215 -81.08583 33905 ft 442 kts 288°
2026-04-16 00:03 9.32274 -81.14439 33906 ft 443 kts 288°
2026-04-16 00:04 9.34338 -81.20313 33905 ft 442 kts 288°
2026-04-16 00:04 9.36388 -81.26148 33907 ft 442 kts 288°
2026-04-16 00:05 9.38451 -81.32027 33908 ft 444 kts 289°
2026-04-16 00:05 9.40508 -81.37895 33903 ft 443 kts 289°
2026-04-16 00:06 9.42557 -81.43739 33908 ft 440 kts 289°
2026-04-16 00:06 9.44601 -81.49576 33906 ft 442 kts 289°
2026-04-16 00:07 9.46660 -81.55458 33908 ft 443 kts 289°
2026-04-16 00:07 9.48702 -81.61293 33902 ft 442 kts 289°
2026-04-16 00:08 9.50767 -81.67199 33904 ft 444 kts 289°
2026-04-16 00:08 9.52818 -81.73068 33905 ft 443 kts 289°
2026-04-16 00:09 9.54862 -81.78923 33904 ft 440 kts 289°
2026-04-16 00:09 9.56916 -81.84807 33905 ft 442 kts 289°
2026-04-16 00:10 9.58964 -81.90676 33906 ft 442 kts 289°
2026-04-16 00:10 9.60996 -81.96506 33907 ft 440 kts 289°
2026-04-16 00:11 9.63039 -82.02367 33899 ft 442 kts 289°
2026-04-16 00:11 9.65084 -82.08240 33907 ft 444 kts 289°
2026-04-16 00:12 9.67139 -82.14146 33906 ft 443 kts 289°
2026-04-16 00:12 9.69179 -82.20014 33910 ft 442 kts 289°
2026-04-16 00:13 9.71204 -82.25919 33910 ft 444 kts 288°
2026-04-16 00:13 9.73129 -82.31851 33912 ft 444 kts 289°
2026-04-16 00:14 9.75183 -82.37753 33913 ft 444 kts 290°
2026-04-16 00:14 9.77249 -82.43653 33913 ft 444 kts 290°
2026-04-16 00:15 9.79299 -82.49542 33911 ft 443 kts 290°
2026-04-16 00:15 9.81351 -82.55458 33922 ft 446 kts 289°
2026-04-16 00:16 9.83300 -82.61384 33915 ft 443 kts 288°
2026-04-16 00:16 9.85214 -82.67331 33922 ft 444 kts 288°
2026-04-16 00:17 9.87155 -82.73332 33923 ft 447 kts 289°
2026-04-16 00:17 9.89141 -82.79293 33922 ft 447 kts 289°
2026-04-16 00:18 9.91097 -82.85297 33921 ft 446 kts 288°
2026-04-16 00:18 9.93018 -82.91246 33925 ft 446 kts 288°
2026-04-16 00:19 9.94946 -82.97243 33923 ft 446 kts 288°
2026-04-16 00:19 9.96503 -83.03344 33939 ft 449 kts 276°
2026-04-16 00:20 9.96709 -83.09679 33929 ft 450 kts 272°
2026-04-16 00:20 9.96810 -83.16013 33944 ft 450 kts 272°
2026-04-16 00:21 9.96930 -83.22344 33960 ft 450 kts 273°
2026-04-16 00:21 9.97100 -83.28721 33968 ft 452 kts 272°
2026-04-16 00:22 9.97235 -83.35068 33988 ft 450 kts 272°
2026-04-16 00:22 9.97356 -83.41441 33998 ft 451 kts 272°
2026-04-16 00:23 9.97470 -83.47766 34026 ft 449 kts 272°
2026-04-16 00:23 9.97582 -83.54116 34055 ft 452 kts 272°
2026-04-16 00:24 9.97691 -83.60506 34109 ft 453 kts 272°
2026-04-16 00:24 9.97800 -83.66896 34166 ft 453 kts 272°
2026-04-16 00:25 9.97907 -83.73317 34215 ft 453 kts 272°
2026-04-16 00:25 9.98013 -83.79683 34237 ft 453 kts 272°
2026-04-16 00:26 9.98118 -83.86071 34199 ft 453 kts 272°
2026-04-16 00:26 9.98221 -83.92442 34175 ft 451 kts 272°
2026-04-16 00:27 9.98324 -83.98789 33584 ft 458 kts 272°
2026-04-16 00:27 9.98376 -84.02015 32934 ft 455 kts 271°
2026-04-16 00:27 9.98426 -84.05200 32291 ft 449 kts 271°
2026-04-16 00:28 9.98473 -84.08311 31667 ft 448 kts 271°
2026-04-16 00:28 9.98522 -84.11489 30971 ft 451 kts 272°
2026-04-16 00:28 9.98571 -84.14681 30318 ft 454 kts 272°
2026-04-16 00:28 9.98620 -84.17890 29714 ft 457 kts 272°
2026-04-16 00:29 9.98786 -84.21075 29139 ft 457 kts 279°
2026-04-16 00:29 9.99445 -84.24239 28566 ft 454 kts 288°
2026-04-16 00:29 10.00577 -84.27193 28014 ft 446 kts 296°
2026-04-16 00:29 10.01866 -84.30009 27460 ft 443 kts 296°
2026-04-16 00:30 10.03161 -84.32826 26912 ft 441 kts 296°
2026-04-16 00:30 10.04476 -84.35663 26361 ft 437 kts 297°
2026-04-16 00:30 10.05769 -84.38438 25817 ft 433 kts 297°
2026-04-16 00:30 10.07054 -84.41188 25287 ft 432 kts 297°
2026-04-16 00:31 10.08330 -84.43914 24754 ft 430 kts 297°
2026-04-16 00:31 10.09611 -84.46645 24220 ft 429 kts 298°
2026-04-16 00:31 10.10904 -84.49402 23691 ft 426 kts 298°
2026-04-16 00:31 10.12173 -84.52107 23182 ft 423 kts 298°
2026-04-16 00:32 10.13437 -84.54800 22663 ft 422 kts 298°
2026-04-16 00:32 10.14693 -84.57478 22138 ft 420 kts 298°
2026-04-16 00:32 10.15940 -84.60135 21641 ft 417 kts 298°
2026-04-16 00:32 10.17176 -84.62767 21137 ft 415 kts 298°
2026-04-16 00:33 10.18381 -84.65428 20607 ft 415 kts 295°
2026-04-16 00:33 10.19535 -84.68094 20070 ft 413 kts 296°
2026-04-16 00:33 10.20727 -84.70751 19543 ft 411 kts 296°
2026-04-16 00:33 10.21903 -84.73342 19099 ft 407 kts 297°
2026-04-16 00:34 10.23102 -84.75954 18644 ft 407 kts 297°
2026-04-16 00:34 10.24306 -84.78562 18163 ft 407 kts 297°
2026-04-16 00:34 10.25495 -84.81127 17668 ft 405 kts 297°
2026-04-16 00:34 10.26696 -84.83717 17152 ft 403 kts 297°
2026-04-16 00:35 10.27891 -84.86290 16637 ft 400 kts 297°
2026-04-16 00:35 10.29070 -84.88825 16118 ft 396 kts 297°
2026-04-16 00:35 10.30233 -84.91331 15601 ft 393 kts 297°
2026-04-16 00:35 10.31399 -84.93836 15083 ft 391 kts 297°
2026-04-16 00:36 10.32570 -84.96357 14560 ft 389 kts 297°
2026-04-16 00:36 10.33721 -84.98834 14047 ft 386 kts 297°
2026-04-16 00:36 10.34860 -85.01286 13624 ft 383 kts 297°
2026-04-16 00:36 10.35981 -85.03699 13183 ft 382 kts 298°
2026-04-16 00:37 10.37118 -85.06146 12697 ft 380 kts 298°
2026-04-16 00:37 10.38246 -85.08576 12266 ft 374 kts 297°
2026-04-16 00:37 10.39353 -85.10962 11795 ft 372 kts 298°
2026-04-16 00:37 10.40446 -85.13316 11322 ft 369 kts 297°
2026-04-16 00:38 10.41543 -85.15681 10869 ft 365 kts 297°
2026-04-16 00:38 10.42620 -85.18005 10430 ft 362 kts 297°
2026-04-16 00:38 10.43677 -85.20287 10026 ft 354 kts 297°
2026-04-16 00:38 10.44718 -85.22538 9642 ft 346 kts 297°
2026-04-16 00:39 10.45733 -85.24731 9284 ft 338 kts 297°
2026-04-16 00:39 10.46723 -85.26869 8961 ft 330 kts 297°
2026-04-16 00:39 10.47685 -85.28948 8680 ft 321 kts 297°
2026-04-16 00:39 10.48614 -85.30957 8441 ft 312 kts 297°
2026-04-16 00:40 10.49530 -85.32939 8217 ft 302 kts 297°
2026-04-16 00:40 10.50403 -85.34829 8035 ft 293 kts 298°
2026-04-16 00:40 10.51257 -85.36675 7869 ft 282 kts 298°
2026-04-16 00:40 10.52074 -85.38446 7723 ft 269 kts 298°
2026-04-16 00:41 10.52879 -85.40181 7567 ft 274 kts 298°
2026-04-16 00:41 10.53704 -85.41962 7409 ft 280 kts 298°
2026-04-16 00:41 10.54524 -85.43736 7214 ft 279 kts 298°
2026-04-16 00:41 10.55354 -85.45534 7030 ft 277 kts 298°
2026-04-16 00:42 10.56168 -85.47294 6827 ft 278 kts 298°
2026-04-16 00:42 10.56992 -85.49080 6602 ft 278 kts 299°
2026-04-16 00:42 10.57808 -85.50847 6389 ft 276 kts 299°
2026-04-16 00:42 10.58629 -85.52624 6166 ft 274 kts 300°
2026-04-16 00:43 10.59293 -85.54436 5948 ft 279 kts 282°
2026-04-16 00:43 10.59281 -85.56423 5693 ft 288 kts 267°
2026-04-16 00:43 10.59087 -85.58472 5325 ft 290 kts 267°
2026-04-16 00:43 10.58896 -85.60491 4976 ft 285 kts 266°
2026-04-16 00:44 10.58697 -85.62488 4602 ft 283 kts 266°
2026-04-16 00:44 10.58497 -85.64465 4237 ft 282 kts 265°
2026-04-16 00:44 10.58295 -85.66423 3870 ft 281 kts 265°
2026-04-16 00:44 10.58090 -85.68400 3492 ft 279 kts 264°
2026-04-16 00:45 10.57886 -85.70358 3147 ft 281 kts 264°
2026-04-16 00:45 10.57468 -85.72271 3007 ft 273 kts 242°
2026-04-16 00:45 10.56272 -85.73759 3042 ft 273 kts 211°
2026-04-16 00:45 10.54542 -85.74493 3043 ft 268 kts 182°
2026-04-16 00:46 10.52756 -85.74309 3036 ft 248 kts 153°
2026-04-16 00:46 10.51424 -85.73350 3050 ft 222 kts 119°
2026-04-16 00:46 10.51096 -85.71961 3048 ft 201 kts 77°
2026-04-16 00:46 10.51858 -85.70809 3030 ft 204 kts 36°
2026-04-16 00:47 10.53138 -85.70233 3007 ft 192 kts 26°
2026-04-16 00:47 10.54049 -85.69453 2984 ft 158 kts 69°
2026-04-16 00:47 10.54359 -85.68413 2924 ft 159 kts 76°
2026-04-16 00:47 10.54672 -85.67335 2674 ft 154 kts 72°
2026-04-16 00:48 10.55036 -85.66376 2452 ft 137 kts 71°
2026-04-16 00:48 10.55358 -85.65496 2218 ft 129 kts 73°
2026-04-16 00:48 10.55664 -85.64644 2054 ft 131 kts 73°
2026-04-16 00:48 10.55982 -85.63758 1885 ft 134 kts 73°
2026-04-16 00:49 10.56306 -85.62861 1720 ft 134 kts 73°
2026-04-16 00:50 10.58513 -85.56754 537 ft 141 kts 71°
2026-04-16 00:51 10.58846 -85.55850 355 ft 129 kts 74°
2026-04-16 00:51 10.59117 -85.55054 267 ft 103 kts 71°
2026-04-16 00:51 10.59303 -85.54545 266 ft 58 kts 68°
2026-04-16 00:51 10.59427 -85.54199 267 ft 49 kts 71°
2026-04-16 00:52 10.59528 -85.53912 270 ft 30 kts 69°
2026-04-16 00:52 10.59624 -85.53827 270 ft 17 kts 346°
2026-04-16 00:52 10.59746 -85.53863 267 ft 18 kts 354°
2026-04-16 00:52 10.59797 -85.53800 268 ft 8 kts 69°
2026-04-16 00:53 10.59819 -85.53741 270 ft 11 kts 69°
2026-04-16 00:53 10.59855 -85.53645 272 ft 18 kts 69°
2026-04-16 00:53 10.59895 -85.53551 272 ft 9 kts 39°
2026-04-16 00:53 10.59957 -85.53552 271 ft 9 kts 338°
2026-04-16 00:54 10.59986 -85.53563 270 ft 0 kts 338°
2026-04-16 02:04 10.59975 -85.53558 271 ft 2 kts 338°
2026-04-16 02:04 10.59961 -85.53552 271 ft 2 kts 338°
2026-04-16 02:04 10.59947 -85.53547 271 ft 2 kts 338°
2026-04-16 02:05 10.59938 -85.53543 272 ft 1 kts 338°
2026-04-16 02:05 10.59926 -85.53535 272 ft 2 kts 307°
2026-04-16 02:05 10.59919 -85.53522 273 ft 2 kts 281°
2026-04-16 02:05 10.59919 -85.53507 273 ft 1 kts 255°
2026-04-16 02:06 10.59921 -85.53501 274 ft 1 kts 248°
2026-04-16 02:06 10.59922 -85.53500 274 ft 0 kts 249°
2026-04-16 02:07 10.59889 -85.53562 272 ft 18 kts 244°
2026-04-16 02:07 10.59838 -85.53688 271 ft 18 kts 248°
2026-04-16 02:07 10.59795 -85.53799 268 ft 15 kts 248°
2026-04-16 02:08 10.59733 -85.53850 267 ft 9 kts 171°
2026-04-16 02:08 10.59684 -85.53841 269 ft 5 kts 168°
2026-04-16 02:08 10.59650 -85.53833 269 ft 4 kts 166°
2026-04-16 02:08 10.59605 -85.53822 271 ft 10 kts 167°
2026-04-16 02:09 10.59544 -85.53880 271 ft 18 kts 249°
2026-04-16 02:09 10.59486 -85.54043 269 ft 30 kts 250°
2026-04-16 02:09 10.59397 -85.54280 266 ft 41 kts 249°
2026-04-16 02:09 10.59287 -85.54586 265 ft 50 kts 248°
2026-04-16 02:10 10.59144 -85.54945 267 ft 59 kts 250°
2026-04-16 02:10 10.59028 -85.55315 263 ft 43 kts 266°
2026-04-16 02:10 10.59109 -85.55529 257 ft 25 kts 277°
2026-04-16 02:10 10.59039 -85.55652 254 ft 17 kts 178°
2026-04-16 02:11 10.59004 -85.55647 255 ft 0 kts 166°
2026-04-16 02:11 10.58950 -85.55618 256 ft 16 kts 128°
2026-04-16 02:11 10.58958 -85.55510 260 ft 19 kts 71°
2026-04-16 02:11 10.59078 -85.55170 265 ft 87 kts 70°
2026-04-16 02:12 10.59372 -85.54344 286 ft 153 kts 72°
2026-04-16 02:12 10.59736 -85.53323 975 ft 162 kts 69°
2026-04-16 02:12 10.60196 -85.52258 1706 ft 170 kts 69°
2026-04-16 02:12 10.60683 -85.51109 2233 ft 184 kts 69°
2026-04-16 02:13 10.61198 -85.49893 2825 ft 193 kts 68°
2026-04-16 02:13 10.61728 -85.48643 3563 ft 195 kts 67°
2026-04-16 02:13 10.62267 -85.47369 4212 ft 201 kts 66°
2026-04-16 02:13 10.62664 -85.45997 4826 ft 214 kts 86°
2026-04-16 02:14 10.62261 -85.44430 5201 ft 248 kts 119°
2026-04-16 02:14 10.61129 -85.43022 5717 ft 268 kts 119°
2026-04-16 02:14 10.60456 -85.41268 6390 ft 270 kts 90°
2026-04-16 02:14 10.60723 -85.39420 7214 ft 269 kts 63°
2026-04-16 02:15 10.61848 -85.37917 7994 ft 273 kts 37°
2026-04-16 02:15 10.63577 -85.37132 8781 ft 278 kts
2026-04-16 02:15 10.65531 -85.37260 9536 ft 288 kts 342°
2026-04-16 02:15 10.67255 -85.38316 10363 ft 297 kts 318°
2026-04-16 02:16 10.68533 -85.40028 10716 ft 321 kts 302°
2026-04-16 02:16 10.69682 -85.42088 11077 ft 341 kts 302°
2026-04-16 02:16 10.70864 -85.44192 11676 ft 350 kts 302°
2026-04-16 02:16 10.72014 -85.46242 12348 ft 354 kts 302°
2026-04-16 02:17 10.73258 -85.48433 12988 ft 358 kts 305°
2026-04-16 02:17 10.74779 -85.50449 13616 ft 359 kts 317°
2026-04-16 02:17 10.76615 -85.52145 14287 ft 360 kts 323°
2026-04-16 02:17 10.78644 -85.53695 14926 ft 364 kts 327°
2026-04-16 02:18 10.80738 -85.55138 15586 ft 366 kts 329°
2026-04-16 02:18 10.82884 -85.56538 16171 ft 371 kts 330°
2026-04-16 02:18 10.85093 -85.57926 16801 ft 374 kts 330°
2026-04-16 02:18 10.87350 -85.59315 17399 ft 378 kts 330°
2026-04-16 02:19 10.89623 -85.60698 18059 ft 380 kts 331°
2026-04-16 02:19 10.91906 -85.62077 18688 ft 382 kts 331°
2026-04-16 02:19 10.94192 -85.63454 19336 ft 384 kts 331°
2026-04-16 02:19 10.96476 -85.64826 19939 ft 386 kts 331°
2026-04-16 02:20 10.98806 -85.66224 20566 ft 387 kts 331°
2026-04-16 02:20 11.01126 -85.67616 21102 ft 390 kts 331°
2026-04-16 02:20 11.03480 -85.69028 21625 ft 394 kts 330°
2026-04-16 02:20 11.05844 -85.70446 22201 ft 395 kts 330°
2026-04-16 02:21 11.08215 -85.71869 22787 ft 396 kts 330°
2026-04-16 02:21 11.10592 -85.73295 23331 ft 398 kts 330°
2026-04-16 02:21 11.12975 -85.74725 23902 ft 399 kts 330°
2026-04-16 02:21 11.15393 -85.76176 24372 ft 402 kts 330°
2026-04-16 02:22 11.17817 -85.77631 24938 ft 403 kts 330°
2026-04-16 02:22 11.20227 -85.79065 25457 ft 404 kts 333°
2026-04-16 02:22 11.22799 -85.80262 25912 ft 407 kts 339°
2026-04-16 02:22 11.25453 -85.81342 26452 ft 407 kts 339°
2026-04-16 02:23 11.28079 -85.82417 26967 ft 408 kts 339°
2026-04-16 02:23 11.30748 -85.83504 27377 ft 412 kts 339°
2026-04-16 02:23 11.33407 -85.84585 27898 ft 412 kts 339°
2026-04-16 02:23 11.36066 -85.85664 28340 ft 414 kts 339°
2026-04-16 02:24 11.38764 -85.86758 28811 ft 416 kts 339°
2026-04-16 02:24 11.41464 -85.87852 29162 ft 420 kts 340°
2026-04-16 02:24 11.44192 -85.88959 29574 ft 422 kts 340°
2026-04-16 02:24 11.46963 -85.90083 29892 ft 426 kts 340°
2026-04-16 02:25 11.49694 -85.91190 30304 ft 427 kts 340°
2026-04-16 02:25 11.52492 -85.92324 30639 ft 430 kts 340°
2026-04-16 02:25 11.55299 -85.93420 30987 ft 432 kts 341°
2026-04-16 02:25 11.58092 -85.94506 31445 ft 431 kts 340°
2026-04-16 02:26 11.60895 -85.95616 31919 ft 427 kts 340°
2026-04-16 02:26 11.63668 -85.96722 31908 ft 427 kts 340°
2026-04-16 02:26 11.69180 -85.98942 31911 ft 426 kts 340°
2026-04-16 02:27 11.74728 -86.01188 31911 ft 427 kts 340°
2026-04-16 02:27 11.80230 -86.03421 31914 ft 426 kts 340°
2026-04-16 02:28 11.85723 -86.05653 31923 ft 424 kts 340°
2026-04-16 02:28 11.91260 -86.07905 31927 ft 426 kts 340°
2026-04-16 02:29 11.96741 -86.10135 31939 ft 424 kts 340°
2026-04-16 02:29 12.02290 -86.12394 31953 ft 425 kts 340°
2026-04-16 02:30 12.07768 -86.14625 31946 ft 423 kts 340°
2026-04-16 02:30 12.13234 -86.16907 31944 ft 425 kts 335°
2026-04-16 02:31 12.18202 -86.20218 31938 ft 428 kts 328°
2026-04-16 02:31 12.23058 -86.23752 31925 ft 429 kts 327°
2026-04-16 02:32 12.27911 -86.27314 31922 ft 429 kts 327°
2026-04-16 02:32 12.32782 -86.30901 31925 ft 430 kts 327°
2026-04-16 02:33 12.37649 -86.34491 31932 ft 428 kts 327°
2026-04-16 02:33 12.42477 -86.38054 31934 ft 428 kts 327°
2026-04-16 02:34 12.47340 -86.41646 31942 ft 430 kts 327°
2026-04-16 02:34 12.52190 -86.45229 31937 ft 430 kts 327°
2026-04-16 02:35 12.57029 -86.48807 31941 ft 430 kts 327°
2026-04-16 02:35 12.61883 -86.52397 31933 ft 431 kts 327°
2026-04-16 02:36 12.66749 -86.55998 31938 ft 430 kts 327°
2026-04-16 02:36 12.71592 -86.59585 31950 ft 429 kts 327°
2026-04-16 02:37 12.76478 -86.63204 31943 ft 431 kts 327°
2026-04-16 02:37 12.81320 -86.66793 31935 ft 431 kts 326°
2026-04-16 02:38 12.86200 -86.70411 31920 ft 431 kts 326°
2026-04-16 02:38 12.91055 -86.74013 31922 ft 432 kts 326°
2026-04-16 02:39 12.95947 -86.77648 31905 ft 433 kts 326°
2026-04-16 02:39 13.00806 -86.81306 31918 ft 431 kts 326°
2026-04-16 02:40 13.05647 -86.84950 31923 ft 434 kts 326°
2026-04-16 02:40 13.10537 -86.88632 31951 ft 434 kts 326°
2026-04-16 02:41 13.15411 -86.92299 31938 ft 434 kts 326°
2026-04-16 02:41 13.20329 -86.95930 31965 ft 433 kts 326°
2026-04-16 02:42 13.25225 -86.99546 31968 ft 434 kts 326°
2026-04-16 02:42 13.30118 -87.03162 31972 ft 431 kts 326°
2026-04-16 02:43 13.34970 -87.06749 31957 ft 433 kts 326°
2026-04-16 02:43 13.39870 -87.10374 31956 ft 432 kts 326°
2026-04-16 02:44 13.44767 -87.13999 31972 ft 433 kts 326°
2026-04-16 02:44 13.49674 -87.17633 31997 ft 433 kts 326°
2026-04-16 02:45 13.54546 -87.21242 32027 ft 434 kts 326°
2026-04-16 02:45 13.59556 -87.24712 32041 ft 433 kts 334°
2026-04-16 02:46 13.65255 -87.26544 32051 ft 429 kts 353°
2026-04-16 02:46 13.71248 -87.27064 32075 ft 431 kts 355°
2026-04-16 02:47 13.77239 -87.27486 32076 ft 429 kts 356°
2026-04-16 02:47 13.83202 -87.27869 32091 ft 429 kts 356°
2026-04-16 02:48 13.89177 -87.27345 32121 ft 433 kts 14°
2026-04-16 02:48 13.94938 -87.25517 32123 ft 433 kts 16°
2026-04-16 02:49 14.00693 -87.23635 32148 ft 433 kts 16°
2026-04-16 02:49 14.06467 -87.22072 32140 ft 419 kts 11°
2026-04-16 02:50 14.12084 -87.20760 32152 ft 408 kts
2026-04-16 02:50 14.17763 -87.20599 32154 ft 411 kts 349°
2026-04-16 02:51 14.23132 -87.22568 32136 ft 411 kts 330°
2026-04-16 02:51 14.27454 -87.26427 32142 ft 415 kts 310°
2026-04-16 02:52 14.30175 -87.31716 32163 ft 424 kts 290°
2026-04-16 02:52 14.30913 -87.37766 32180 ft 433 kts 270°
2026-04-16 02:53 14.29540 -87.43851 32194 ft 443 kts 250°
2026-04-16 02:53 14.26189 -87.49196 32212 ft 451 kts 230°
2026-04-16 02:54 14.21205 -87.53173 32201 ft 458 kts 210°
2026-04-16 02:54 14.15153 -87.55329 32193 ft 462 kts 194°
2026-04-16 02:55 14.08851 -87.56776 32183 ft 464 kts 194°
2026-04-16 02:55 14.02507 -87.58242 32168 ft 465 kts 194°
2026-04-16 02:56 13.96203 -87.59698 32150 ft 464 kts 194°
2026-04-16 02:56 13.89972 -87.61323 32115 ft 461 kts 202°
2026-04-16 02:57 13.84412 -87.64523 32095 ft 457 kts 219°
2026-04-16 02:57 13.79452 -87.68677 32048 ft 457 kts 223°
2026-04-16 02:58 13.74707 -87.73013 32016 ft 456 kts 224°
2026-04-16 02:58 13.70018 -87.77403 31995 ft 457 kts 225°
2026-04-16 02:59 13.65303 -87.81849 31999 ft 456 kts 225°
2026-04-16 02:59 13.60633 -87.86259 31996 ft 456 kts 225°
2026-04-16 03:00 13.55974 -87.90661 32009 ft 456 kts 224°
2026-04-16 03:00 13.51277 -87.95097 31993 ft 457 kts 224°
2026-04-16 03:01 13.46606 -87.99505 31979 ft 457 kts 224°
2026-04-16 03:01 13.41905 -88.03941 31984 ft 457 kts 224°
2026-04-16 03:02 13.37219 -88.08360 32012 ft 456 kts 224°
2026-04-16 03:02 13.32546 -88.12765 32005 ft 457 kts 224°
2026-04-16 03:03 13.27873 -88.17210 32009 ft 456 kts 224°
2026-04-16 03:03 13.23189 -88.21634 32024 ft 456 kts 224°
2026-04-16 03:04 13.18521 -88.26032 32006 ft 456 kts 224°
2026-04-16 03:04 13.13825 -88.30450 31965 ft 457 kts 224°
2026-04-16 03:05 13.09128 -88.34863 31950 ft 456 kts 224°
2026-04-16 03:05 13.04448 -88.39261 31929 ft 457 kts 224°
2026-04-16 03:06 12.99736 -88.43684 31912 ft 457 kts 224°
2026-04-16 03:07 12.92714 -88.50272 31906 ft 458 kts 224°
2026-04-16 03:07 12.87990 -88.54701 31889 ft 458 kts 224°
2026-04-16 03:08 12.83306 -88.59164 31898 ft 458 kts 229°
2026-04-16 03:08 12.79774 -88.64541 31900 ft 455 kts 248°
2026-04-16 03:09 12.78188 -88.70751 31903 ft 450 kts 268°
2026-04-16 03:09 12.78708 -88.77037 31913 ft 443 kts 288°
2026-04-16 03:10 12.81251 -88.82709 31911 ft 436 kts 308°
2026-04-16 03:10 12.85459 -88.87060 31908 ft 430 kts 327°
2026-04-16 03:10 12.89679 -88.89271 31912 ft 427 kts 343°
2026-04-16 03:11 12.95521 -88.90189 31913 ft 424 kts
2026-04-16 03:11 13.01259 -88.88961 31915 ft 423 kts 23°
2026-04-16 03:11 13.06141 -88.85806 31913 ft 423 kts 43°
2026-04-16 03:11 13.09585 -88.81239 31912 ft 427 kts 61°
2026-04-16 03:12 13.11396 -88.76312 31905 ft 430 kts 71°
2026-04-16 03:12 13.14519 -88.66240 31902 ft 430 kts 70°
2026-04-16 03:13 13.18281 -88.54108 31898 ft 429 kts 70°
2026-04-16 03:13 13.21842 -88.42612 31935 ft 431 kts 70°
2026-04-16 03:14 13.25446 -88.30963 30892 ft 437 kts 70°
2026-04-16 03:14 13.27196 -88.25288 29862 ft 422 kts 69°
2026-04-16 03:14 13.28931 -88.19797 28733 ft 404 kts 65°
2026-04-16 03:14 13.31545 -88.15143 27752 ft 383 kts 50°
2026-04-16 03:15 13.34959 -88.11099 26804 ft 388 kts 44°
2026-04-16 03:15 13.38609 -88.07317 25837 ft 386 kts 43°
2026-04-16 03:15 13.42336 -88.03655 24862 ft 380 kts 41°
2026-04-16 03:15 13.46098 -88.00050 23902 ft 378 kts 41°
2026-04-16 03:16 13.49868 -87.96473 22941 ft 377 kts 41°
2026-04-16 03:16 13.53542 -87.92996 22006 ft 374 kts 41°
2026-04-16 03:16 13.57221 -87.89520 21065 ft 369 kts 41°
2026-04-16 03:16 13.60882 -87.86059 20128 ft 361 kts 41°
2026-04-16 03:17 13.64381 -87.82751 19237 ft 357 kts 42°
2026-04-16 03:17 13.67943 -87.79382 18325 ft 352 kts 42°
2026-04-16 03:17 13.71388 -87.76122 17433 ft 349 kts 43°
2026-04-16 03:17 13.74828 -87.72866 16549 ft 342 kts 43°
2026-04-16 03:18 13.78166 -87.69704 15736 ft 335 kts 43°
2026-04-16 03:18 13.81480 -87.66563 14908 ft 330 kts 43°
2026-04-16 03:18 13.84707 -87.63467 14107 ft 324 kts 44°
2026-04-16 03:18 13.86519 -87.61736 13671 ft 321 kts 44°
2026-04-16 03:19 13.88149 -87.60190 13286 ft 320 kts 42°
2026-04-16 03:19 13.89997 -87.58946 12911 ft 318 kts 25°
2026-04-16 03:19 13.92139 -87.58348 12554 ft 320 kts 10°
2026-04-16 03:19 13.94385 -87.58100 12185 ft 322 kts
2026-04-16 03:20 13.96634 -87.57858 11820 ft 321 kts
2026-04-16 03:20 13.98844 -87.57602 11463 ft 318 kts
2026-04-16 03:20 14.01039 -87.57338 11120 ft 316 kts
2026-04-16 03:20 14.03239 -87.57063 10815 ft 316 kts
2026-04-16 03:21 14.05428 -87.56786 10525 ft 317 kts
2026-04-16 03:21 14.07628 -87.56493 10244 ft 313 kts
2026-04-16 03:21 14.09783 -87.56203 9999 ft 304 kts
2026-04-16 03:21 14.11865 -87.55923 9802 ft 294 kts
2026-04-16 03:22 14.13856 -87.55599 9636 ft 283 kts 18°
2026-04-16 03:22 14.15542 -87.54658 9526 ft 268 kts 42°
2026-04-16 03:22 14.16895 -87.53345 9417 ft 271 kts 45°
2026-04-16 03:22 14.18255 -87.51972 9295 ft 271 kts 45°
2026-04-16 03:23 14.19591 -87.50612 9167 ft 270 kts 45°
2026-04-16 03:23 14.20924 -87.49257 9047 ft 265 kts 45°
2026-04-16 03:23 14.22198 -87.47952 8958 ft 247 kts 45°
2026-04-16 03:23 14.23388 -87.46718 8830 ft 236 kts 45°
2026-04-16 03:24 14.24532 -87.45528 8781 ft 230 kts 45°
2026-04-16 03:24 14.25648 -87.44366 8694 ft 227 kts 45°
2026-04-16 03:24 14.26766 -87.43195 8613 ft 227 kts 48°
2026-04-16 03:24 14.27489 -87.41789 8517 ft 227 kts 78°
2026-04-16 03:25 14.27343 -87.40186 8459 ft 229 kts 111°
2026-04-16 03:25 14.26392 -87.38869 8402 ft 231 kts 135°
2026-04-16 03:25 14.25030 -87.37974 8327 ft 233 kts 156°
2026-04-16 03:25 14.23507 -87.37373 8196 ft 235 kts 157°
2026-04-16 03:26 14.21971 -87.36777 8007 ft 234 kts 157°
2026-04-16 03:26 14.20450 -87.36196 7800 ft 232 kts 157°
2026-04-16 03:26 14.18948 -87.35560 7568 ft 230 kts 147°
2026-04-16 03:26 14.17655 -87.34656 7362 ft 220 kts 152°
2026-04-16 03:27 14.16142 -87.34373 7003 ft 222 kts 180°
2026-04-16 03:27 14.14616 -87.34406 6836 ft 209 kts 172°
2026-04-16 03:27 14.13264 -87.34155 6821 ft 187 kts 159°
2026-04-16 03:27 14.12076 -87.33662 6883 ft 186 kts 148°
2026-04-16 03:28 14.10899 -87.32926 6636 ft 205 kts 144°
2026-04-16 03:28 14.09647 -87.32277 6367 ft 189 kts 153°
2026-04-16 03:28 14.08552 -87.31553 5933 ft 185 kts 131°
2026-04-16 03:28 14.07774 -87.30552 5714 ft 173 kts 117°
2026-04-16 03:29 14.07131 -87.29475 5582 ft 179 kts 120°
2026-04-16 03:29 14.06403 -87.28411 5461 ft 182 kts 122°
2026-04-16 03:29 14.05667 -87.27402 5350 ft 168 kts 123°
2026-04-16 03:29 14.04988 -87.26453 4928 ft 163 kts 120°
2026-04-16 03:30 14.04335 -87.25505 4544 ft 156 kts 120°
2026-04-16 03:30 14.03954 -87.24531 4213 ft 144 kts 92°
2026-04-16 03:30 14.04038 -87.23519 3904 ft 147 kts 70°
2026-04-16 03:30 14.04458 -87.22583 3675 ft 144 kts 47°
2026-04-16 03:31 14.05258 -87.22015 3403 ft 138 kts 18°
2026-04-16 03:31 14.06155 -87.21696 3290 ft 132 kts 16°
2026-04-16 03:31 14.07124 -87.21320 3577 ft 156 kts 21°
2026-04-16 03:31 14.08124 -87.20861 4207 ft 163 kts 21°
2026-04-16 03:32 14.09199 -87.20733 4635 ft 162 kts 347°
2026-04-16 03:32 14.10254 -87.21332 4868 ft 185 kts 319°
2026-04-16 03:34 14.07487 -87.29441 5257 ft 172 kts 161°
2026-04-16 03:34 14.06548 -87.28720 5182 ft 173 kts 124°
2026-04-16 03:34 14.05865 -87.27725 5254 ft 162 kts 120°
2026-04-16 03:34 14.05252 -87.26774 5148 ft 167 kts 121°
2026-04-16 03:35 14.04554 -87.25779 4670 ft 171 kts 123°
2026-04-16 03:35 14.03996 -87.24725 4327 ft 159 kts 103°
2026-04-16 03:35 14.03941 -87.23648 3969 ft 148 kts 74°
2026-04-16 03:35 14.04327 -87.22678 3718 ft 147 kts 51°
2026-04-16 03:36 14.05131 -87.22063 3437 ft 142 kts 19°
2026-04-16 03:36 14.06007 -87.21751 3296 ft 122 kts 17°
2026-04-16 03:36 14.06644 -87.21516 3269 ft 62 kts 25°
2026-04-16 03:36 14.06837 -87.21457 3248 ft 15 kts 358°
2026-04-16 03:37 14.06867 -87.21523 3244 ft 8 kts 223°
2026-04-16 03:37 14.06816 -87.21547 3248 ft 10 kts 200°
2026-04-16 03:37 14.06737 -87.21576 3258 ft 13 kts 199°
2026-04-16 03:37 14.06634 -87.21613 3264 ft 17 kts 198°
2026-04-16 03:38 14.06523 -87.21651 3266 ft 15 kts 199°
2026-04-16 03:38 14.06432 -87.21683 3271 ft 10 kts 199°
2026-04-16 03:38 14.06378 -87.21700 3274 ft 5 kts 198°
2026-04-16 03:38 14.06334 -87.21716 3277 ft 8 kts 198°
2026-04-16 03:39 14.06272 -87.21736 3282 ft 9 kts 198°
2026-04-16 03:39 14.06223 -87.21753 3285 ft 5 kts 198°
2026-04-16 03:39 14.06188 -87.21765 3286 ft 4 kts 200°
2026-04-16 03:39 14.06158 -87.21776 3287 ft 4 kts 200°
2026-04-16 03:40 14.06143 -87.21782 3288 ft 0 kts 200°